This is the latest recevied weather packets stored in our database for station/object SP1BMW-13. If no packets are shown the sender has not sent any weather packets the latest 10 day(s).
| Time | Temp. | Humidity | Pressure | Rain* | Wind** | Luminosity | Snow |
|---|---|---|---|---|---|---|---|
| 1788103718 | 26.11° C | 48% | 1008.2 hPa | 0 mm | 2.68 m/s, 265° | 265 W/m² | - |
| 1788103658 | 26.11° C | 48% | 1008.3 hPa | 0 mm | 1.79 m/s, 243° | 271 W/m² | - |
| 1788103598 | 26.11° C | 48% | 1008.4 hPa | 0 mm | 2.24 m/s, 232° | 283 W/m² | - |
| 1788103538 | 25.56° C | 48% | 1008.2 hPa | 0 mm | 1.34 m/s, 317° | 293 W/m² | - |
| 1788103478 | 25.56° C | 49% | 1008.2 hPa | 0 mm | 2.68 m/s, 212° | 293 W/m² | - |
| 1788103418 | 25.56° C | 48% | 1008.4 hPa | 0 mm | 1.34 m/s, 221° | 286 W/m² | - |
| 1788103358 | 25.56° C | 48% | 1008.3 hPa | 0 mm | 0.89 m/s, 240° | 173 W/m² | - |
| 1788103301 | 25.56° C | 48% | 1008.3 hPa | 0 mm | 2.68 m/s, 258° | 167 W/m² | - |
| 1788103238 | 26.11° C | 48% | 1008.3 hPa | 0 mm | 1.79 m/s, 303° | 248 W/m² | - |
| 1788103178 | 26.11° C | 48% | 1008.2 hPa | 0 mm | 2.24 m/s, 174° | 248 W/m² | - |
| 1788103118 | 26.11° C | 48% | 1008.3 hPa | 0 mm | 1.79 m/s, 254° | 227 W/m² | - |
| 1788103058 | 26.11° C | 47% | 1008.1 hPa | 0 mm | 2.24 m/s, 262° | 168 W/m² | - |
| 1788102998 | 26.11° C | 47% | 1008.3 hPa | 0 mm | 2.68 m/s, 260° | 127 W/m² | - |
| 1788102941 | 26.67° C | 47% | 1008.2 hPa | 0 mm | 2.24 m/s, 265° | 128 W/m² | - |
| 1788102878 | 26.67° C | 47% | 1008.3 hPa | 0 mm | 3.13 m/s, 313° | 306 W/m² | - |
| 1788102818 | 26.67° C | 47% | 1008.3 hPa | 0 mm | 2.68 m/s, 303° | 158 W/m² | - |
| 1788102759 | 26.67° C | 47% | 1008.3 hPa | 0 mm | 1.34 m/s, 227° | 249 W/m² | - |
| 1788102701 | 26.67° C | 47% | 1008.3 hPa | 0 mm | 0.45 m/s, 242° | 113 W/m² | - |
| 1788102638 | 26.67° C | 46% | 1008.2 hPa | 0 mm | 2.68 m/s, 244° | 109 W/m² | - |
| 1788102578 | 27.22° C | 46% | 1008.2 hPa | 0 mm | 1.34 m/s, 157° | 273 W/m² | - |
| 1788102521 | 27.22° C | 45% | 1008.3 hPa | 0 mm | 2.68 m/s, 273° | 127 W/m² | - |
| 1788102459 | 27.22° C | 46% | 1008.2 hPa | 0 mm | 0.89 m/s, 251° | 245 W/m² | - |
| 1788102401 | 27.22° C | 45% | 1008.3 hPa | 0 mm | 1.79 m/s, 250° | 323 W/m² | - |
| 1788102344 | 27.22° C | 45% | 1008.2 hPa | 0 mm | 2.24 m/s, 277° | 327 W/m² | - |
| 1788102278 | 27.22° C | 45% | 1008.3 hPa | 0 mm | 2.68 m/s, 260° | 338 W/m² | - |
* Rain latest hour (hover to see other rain measurements)
** Current wind speed in m/s (hover to see current wind gust speed)